SCP
0 0 0 0 0 0 0 0 0 0 0 0 0 0 0 0 0 0 0 0 0 0 0 0 0 0 0 0 0 0 0 0 0 0 0 0 0 0 0 0 0 0 0 0 0 0 0 0 0
0 0 0 0 0 0 0 0 0 0 0 0 0 0 0 0 0 0 0 0 0 0 0 0 0 0 0 0 0 0 0 0 0 0 0 0 0 0 0 0 0 0 0 0 0 0 0 0 0
0 0 0 0 0 0 0 0 0 0 0 0 0 0 0 0 0 0 0 0 0 0 0 0 0 0 0 0 0 0 0 0 0 0 0 0 0 0 0 0 0 0 0 0 0 0 0 0 0
0 0 0 0 0 0 0 0 0 0 0 0 0 0 0 0 0 0 0 0 0 0 0 0 0 0 0 0 0 0 0 0 0 0 0 0 0 0 0 0 0 0 0 0 0 0 0 0 0
0 0 0 0 0 0 0 0 0 0 0 0 0 0 0 0 0 0 0 0 0 0 0 0 0 0 0 0 0 0 0 0 0 0 0 0 0 0 0 0 0 0 0 0 0 0 0 0 0
0 0 0 0 0 0 0 0 0 0 0 0 0 0 0 0 0 0 0 0 0 0 0 0 0 0 0 0 0 0 0 0 0 0 0 0 0 0 0 0 0 0 0 0 0 0 0 0 0
0 0 0 0 0 0 0 0 0 0 0 0 0 0 0 0 0 0 0 0 0 0 0 0 0 0 0 0 0 0 0 0 0 0 0 0 0 0 0 0 0 0 0 0 0 0 0 0 0
0 0 0 0 0 0 0 0 0 0 0 0 0 0 0 0 0 0 0 0 0 0 0 0 0 0 0 0 0 0 0 0 0 0 0 0 0 0 0 0 0 0 0 0 0 0 0 0 0
0 0 0 0 0 0 0 0 0 0 0 0 0 0 0 0 0 0 0 0 0 0 0 0 0 0 0 0 0 0 0 0 0 0 0 0 0 0 0 0 0 0 0 0 0 0 0 0 0
0 0 0 0 0 0 0 0 0 0 0 0 0 0 0 0 0 0 0 0 0 0 0 0 0 0 0 0 0 0 0 0 0 0 0 0 0 0 0 0 0 0 0 0 0 0 0 0 0
0 0 0 0 0 0 0 0 0 0 0 0 0 0 0 0 0 0 0 0 0 0 0 0 0 0 0 0 0 0 0 0 0 0 0 0 0 0 0 0 0 0 0 0 0 0 0 0 0
0 0 0 0 0 0 0 0 0 0 0 0 0 0 0 0 0 0 0 0 0 0 0 0 0 0 0 0 0 0 0 0 0 0 0 0 0 0 0 0 0 0 0 0 0 0 0 0 0
0 0 0 0 0 0 0 0 0 0 0 0 0 0 0 0 0 0 0 0 0 0 0 0 0 0 0 0 0 0 0 0 0 0 0 0 0 0 0 0 0 0 0 0 0 0 0 0 0
0 0 0 0 0 0 0 0 0 0 0 0 0 0 0 0 0 0 0 0 0 0 0 0 0 0 0 0 0 0 0 0 0 0 0 0 0 0 0 0 0 0 0 0 0 0 0 0 0
0 0 0 0 0 0 0 0 0 0 0 0 0 0 0 0 0 0 0 0 0 0 0 0 0 0 0 0 0 0 0 0 0 0 0 0 0 0 0 0 0 0 0 0 0 0 0 0 0
0 0 0 0 0 0 0 0 0 0 0 0 0 0 0 0 0 0 0 0 0 0 0 0 0 0 0 0 0 0 0 0 0 0 0 0 0 0 0 0 0 0 0 0 0 0 0 0 0
0 0 0 0 0 0 0 0 0 0 0 0 0 0 0 0 0 0 0 0 0 -0 0 0 0 0 0 0 0 0 0 0 0 0 0 0 0 0 0 0 0 0 0 0 0 0 0 0 0
0 0 0 0 0 0 0 0 0 0 0 0 0 0 0 0 0 0 0 0 0 -0 0 0 0 0 0 0 0 0 0 0 0 0 0 0 0 0 0 0 0 0 0 0 0 0 0 0 0
0 0 0 0 0 0 0 0 0 0 0 0 0 0 0 0 0 0 0 0 0 -0 -0 0 0 0 0 0 0 0 0 0 0 0 0 0 0 0 0 0 0 0 0 0 0 0 0 0 0
0 0 0 0 0 0 0 0 0 0 0 0 0 0 0 0 0 0 0 0 0 -0 -0 0 0 0 0 0 0 0 0 0 0 0 0 0 0 0 0 0 0 0 0 0 0 0 0 0 0
0 0 0 0 0 0 0 0 0 0 0 0 0 0 0 0 0 0 0 0 0 0 0 0 0 0 0 0 0 0 0 0 0 0 0 0 0 0 0 0 0 0 0 0 0 0 0 0 0
0 0 0 0 0 0 0 0 0 0 0 0 0 0 0 0 0 0 0 0 0 0 0 0 0 0 0 0 0 0 0 0 0 0 0 0 0 0 0 0 0 0 0 0 0 0 0 0 0
0 0 0 0 0 0 0 0 0 0 0 0 0 0 0 0 0 0 0 0 0 0 0 0 0 0 0 0 0 0 0 0 0 0 0 0 0 0 0 0 0 0 0 0 0 0 0 0 0
0 0 0 0 0 0 0 0 0 0 0 0 0 0 0 0 0 0 0 0 0 0 0 0 0 0 0 0 0 0 0 0 0 0 0 0 0 0 0 0 0 0 0 0 0 0 0 0 0
0 0 0 0 0 0 0 0 0 0 0 0 0 0 0 0 0 0 0 0 0 0 0 0 0 0 0 0 0 0 0 0 0 0 0 0 0 0 0 0 0 0 0 0 0 0 0 0 0
0 0 0 0 0 0 0 0 0 0 0 0 0 0 0 0 0 0 0 0 0 0 0 0 0 0 0 0 0 0 0 0 0 0 0 0 0 0 0 0 0 0 0 0 0 0 0 0 0
0 0 0 0 0 0 0 0 0 0 0 0 0 0 0 0 0 0 0 0 0 0 0 0 0 0 0 0 0 0 0 0 0 0 0 0 0 0 0 0 0 0 0 0 0 0 0 0 0
0 0 0 0 0 0 0 0 0 0 0 0 0 0 0 0 0 0 0 0 0 0 0 0 0 0 0 0 0 0 0 0 0 0 0 0 0 0 0 0 0 0 0 0 0 0 0 0 0
0 0 0 0 0 0 0 0 0 0 0 0 0 0 0 0 0 0 0 0 0 0 0 0 0 0 0 0 0 0 0 0 0 0 0 0 0 0 0 0 0 0 0 0 0 0 0 0 0
0 0 0 0 0 0 0 0 0 0 0 0 0 0 0 0 0 0 0 0 0 0 0 0 0 0 0 0 0 0 0 0 0 0 0 0 0 0 0 0 0 0 0 0 0 0 0 0 0
Wind_Speed
3 2 2 2 4 4 6 4 2 4 3 1 1 1 2 1 0 4 5 3 3 3 2 3 6 7 8 9 9 9 9 10 10 10 10 11 11 11 11 12 12 12 12 13 13 13 13 13 13
2 1 2 2 5 7 5 5 5 3 3 3 2 2 2 3 4 5 3 2 2 3 2 4 6 7 8 9 9 9 9 9 10 10 10 10 11 11 11 11 12 12 12 12 12 12 12 12 12
1 1 2 3 5 7 4 4 4 4 4 2 3 1 1 3 3 3 3 2 3 4 3 5 6 7 8 9 9 9 9 9 9 10 10 10 10 10 11 11 11 12 12 12 12 12 12 11 11
2 2 2 4 7 4 2 3 4 6 4 1 2 3 3 4 3 3 3 3 4 4 4 5 6 7 8 8 9 9 9 9 9 9 9 10 10 10 10 10 11 11 11 11 11 11 11 11 11
1 3 5 6 7 3 1 1 4 5 4 3 2 3 3 3 4 5 4 3 4 4 4 4 6 7 7 8 8 8 8 9 9 9 9 9 9 9 9 10 10 10 10 10 10 10 10 10 10
3 3 6 9 8 4 2 2 4 3 3 3 2 3 3 3 4 4 4 4 4 4 4 4 6 6 7 8 8 8 8 9 9 8 8 9 9 10 10 9 9 9 9 9 9 9 9 9 9
3 4 6 7 7 6 3 3 3 4 4 2 1 3 3 3 3 3 4 4 5 4 4 4 4 5 6 8 8 9 9 9 9 9 8 8 8 9 9 9 9 9 9 9 9 9 8 8 9
1 3 5 6 7 6 3 3 0 2 2 2 1 3 2 2 2 4 5 4 5 5 4 4 4 4 4 5 8 9 9 9 10 10 10 8 8 8 8 8 8 8 8 9 9 8 8 8 8
3 5 7 7 6 4 4 4 2 1 3 2 1 2 3 4 5 5 5 4 4 4 4 3 3 3 3 4 6 7 7 8 7 7 8 6 4 5 5 8 8 8 8 8 8 8 8 7 7
3 6 6 2 2 3 4 3 3 4 3 2 1 2 3 5 6 6 5 3 3 2 3 3 3 3 3 3 3 3 3 4 4 4 4 3 3 3 4 7 8 8 7 7 7 7 6 4 3
2 4 3 2 1 1 3 2 2 4 3 3 3 4 4 5 5 4 4 3 2 2 2 3 3 3 3 2 2 2 2 2 3 4 4 3 3 3 3 2 3 4 4 3 4 3 2 2 2
3 1 2 2 1 1 2 2 2 2 1 2 1 4 6 5 5 4 3 2 2 2 2 2 2 3 3 2 2 2 2 2 2 3 3 3 2 2 2 2 2 1 1 2 1 1 2 2 3
4 3 2 2 2 2 2 2 1 1 1 2 3 5 5 5 4 2 2 2 2 2 2 2 2 3 2 2 2 2 2 2 2 2 3 3 2 2 2 1 1 1 1 1 1 1 2 2 2
3 3 2 1 2 2 2 2 2 2 1 3 4 4 4 4 4 3 2 1 1 1 1 2 2 2 2 2 2 2 2 2 2 2 3 3 2 2 1 1 1 2 1 1 0 1 1 1 1
3 3 2 1 2 2 2 4 4 2 3 4 3 3 3 3 3 3 2 2 1 1 1 2 1 2 3 3 2 2 2 2 2 2 3 3 2 2 1 1 1 1 1 1 0 0 1 0 0
3 4 4 2 2 2 6 8 3 3 5 5 4 3 3 2 2 2 2 1 1 1 2 2 2 2 3 2 2 2 2 2 2 2 2 2 2 2 1 1 1 1 1 1 0 0 1 1 1
5 5 5 3 2 2 6 7 2 4 5 5 5 4 4 3 2 2 2 2 2 2 2 2 2 2 2 3 2 2 2 2 2 2 2 2 2 1 1 1 1 1 0 0 1 1 1 1 1
5 6 5 5 1 3 7 8 5 4 6 6 5 5 4 4 3 2 2 2 2 2 2 3 2 2 2 2 2 2 2 2 2 2 2 2 2 1 1 0 1 0 0 0 0 1 1 1 1
3 5 6 3 0 4 9 11 10 7 7 7 6 6 5 5 3 2 2 2 2 2 3 3 2 2 2 1 1 1 1 1 2 2 3 3 3 3 1 1 1 1 1 0 1 1 1 1 1
5 6 6 3 1 4 8 12 10 7 7 7 7 6 6 5 4 3 3 3 3 4 3 3 2 2 2 1 1 0 1 1 1 2 3 3 2 2 2 1 1 1 1 1 1 1 1 1 1
6 7 5 4 2 3 7 10 8 5 5 5 5 5 5 5 5 5 4 4 3 3 3 3 2 2 2 2 2 1 1 1 1 1 2 3 3 2 2 2 1 1 1 1 1 1 2 2 1
6 3 4 3 4 3 3 8 6 4 6 6 6 5 5 4 4 4 4 4 3 3 2 2 2 2 2 2 2 2 1 1 0 0 1 1 2 3 3 3 2 1 1 2 2 2 2 2 2
2 1 3 4 4 5 5 7 7 2 7 7 5 5 4 4 4 4 4 4 3 2 2 2 2 2 2 2 2 2 2 1 1 0 0 1 1 2 2 2 2 2 2 2 2 2 2 2 2
3 2 2 3 3 7 6 8 8 4 5 4 3 4 4 4 4 4 3 2 2 1 1 1 2 2 2 2 2 2 2 2 1 1 1 1 1 1 2 2 2 2 2 2 2 3 3 2 3
4 3 2 4 5 6 3 8 10 2 2 3 3 4 3 3 4 4 3 3 2 2 1 1 1 2 2 2 2 3 3 3 3 2 2 1 1 1 2 2 2 2 3 3 3 3 3 3 4
6 5 4 5 5 4 4 10 6 0 1 2 2 2 3 3 3 3 3 2 2 1 1 2 2 2 2 2 2 2 2 2 2 2 2 2 2 2 2 2 2 2 3 3 3 3 3 3 4
6 6 2 2 2 6 7 7 6 3 3 3 2 2 3 3 3 2 2 2 1 1 1 1 2 2 2 2 2 2 2 2 2 2 2 2 1 1 1 2 2 2 3 3 3 2 3 3 3
2 4 4 5 5 8 7 7 6 5 5 4 4 3 3 3 3 3 2 1 1 1 1 1 1 2 2 2 2 2 2 2 2 2 1 1 1 1 2 2 2 3 3 3 3 3 3 3 3
6 6 5 4 4 6 7 6 1 3 3 4 4 3 3 3 3 3 2 1 1 0 0 1 1 1 1 2 2 2 2 2 2 2 1 1 1 1 2 2 3 3 3 3 3 4 3 4 4
5 7 8 6 7 6 7 7 3 1 1 2 3 2 3 3 3 2 2 1 1 1 1 1 1 1 2 2 2 2 2 2 2 1 1 1 2 2 2 2 3 3 3 4 4 4 4 4 4
Wind_Direction
327 305 249 222 205 214 223 199 187 160 160 109 84 170 160 116 38 80 73 89 80 106 99 88 75 86 89 90 90 89 92 94 91 89 88 86 85 84 82 81 82 82 81 81 80 80 79 80 79
324 269 204 210 223 214 211 195 187 166 119 118 113 137 132 93 43 70 89 69 88 103 98 93 78 87 91 92 91 89 95 96 93 91 90 87 85 84 82 80 81 81 81 81 79 80 79 80 80
208 296 208 194 221 226 199 176 179 132 122 148 126 67 55 84 74 75 61 97 109 99 85 84 78 87 92 92 90 89 90 95 95 92 89 88 86 85 83 81 81 81 80 80 81 80 80 80 78
208 175 193 215 212 224 234 129 146 146 141 125 143 122 101 55 41 57 81 110 110 95 82 83 76 81 86 89 89 87 88 89 92 92 89 88 87 87 86 83 83 83 81 81 82 81 80 80 78
215 200 198 212 217 199 212 137 164 167 154 140 166 141 118 78 62 80 95 106 106 96 80 82 78 80 81 81 85 86 88 87 88 90 90 89 89 88 88 87 85 84 84 83 83 82 81 79 78
180 205 212 215 207 190 193 185 177 184 156 134 162 151 110 96 83 84 98 100 95 89 81 79 69 74 77 79 79 80 85 87 84 86 87 89 88 87 85 86 86 86 85 83 83 83 82 79 77
206 202 223 219 207 199 184 171 191 191 183 154 176 160 134 134 89 100 106 100 94 85 81 76 79 81 80 77 76 75 75 79 80 79 81 81 83 85 85 82 83 85 85 83 79 80 79 77 75
243 197 208 213 211 205 161 158 134 213 174 80 224 196 153 139 122 121 113 101 90 76 68 67 78 79 89 92 77 73 72 72 74 72 70 72 79 81 81 83 79 79 81 82 79 79 81 78 73
217 215 216 210 210 189 159 175 126 78 123 114 37 8 31 111 135 126 113 100 83 64 56 58 66 72 76 89 84 82 76 71 74 75 69 73 91 95 89 76 72 76 77 80 81 81 82 80 76
202 218 220 200 198 165 162 183 158 163 169 175 144 76 92 123 137 135 132 129 109 68 48 53 62 62 69 85 95 94 90 86 83 86 83 79 80 77 83 77 70 71 72 74 75 77 85 84 94
200 219 172 146 115 159 165 156 163 197 209 227 212 167 139 141 144 151 152 147 142 111 61 44 57 64 67 72 81 87 88 84 80 77 73 78 78 75 76 85 80 79 77 78 84 92 90 88 87
158 136 144 141 108 160 168 152 156 234 293 17 17 144 148 156 160 167 163 151 134 114 80 50 72 74 65 70 79 84 84 79 75 77 74 73 72 66 65 64 65 63 65 81 87 88 89 91 96
177 157 140 126 119 121 141 181 194 248 336 70 95 126 148 158 163 166 154 144 137 119 86 56 63 86 80 75 68 64 71 77 78 70 68 66 74 69 60 62 58 54 48 66 78 88 95 92 87
159 156 153 150 160 157 182 210 222 238 153 136 130 134 144 156 163 161 151 151 129 115 111 87 57 81 83 84 81 69 67 78 83 75 60 64 67 69 61 57 51 45 30 18 38 100 121 106 97
152 160 163 189 211 189 211 231 220 197 167 167 162 157 154 163 168 179 185 187 174 127 99 89 51 85 91 88 85 75 67 74 72 68 63 55 58 68 62 55 50 36 16 5 1 113 157 133 148
176 198 210 167 205 212 231 246 171 162 180 193 188 183 183 182 182 191 194 195 171 143 129 101 62 76 82 83 83 78 70 69 59 61 67 59 51 50 65 55 38 16 358 353 350 279 231 210 230
192 219 222 185 181 227 233 251 181 180 200 216 210 203 203 200 198 203 198 193 180 160 139 111 76 78 88 83 80 76 66 57 54 53 47 46 51 37 51 40 22 12 10 5 339 315 287 257 257
201 217 222 225 177 237 240 253 247 221 223 235 233 221 215 220 217 203 190 180 173 157 137 116 94 86 92 98 91 83 73 54 44 43 35 28 26 23 22 44 20 329 266 20 313 300 307 282 278
211 222 237 240 264 256 251 261 261 250 241 246 243 234 229 229 219 190 181 166 163 156 143 128 116 111 104 110 106 81 55 45 41 33 35 28 18 15 5 11 2 310 247 248 269 261 263 297 293
206 228 242 249 252 268 272 269 264 250 239 238 239 235 231 226 209 191 182 167 164 161 157 147 139 137 124 109 110 82 72 47 38 31 28 14 14 15 356 355 340 305 282 254 237 234 245 282 279
219 234 243 258 285 242 283 265 239 225 234 240 240 240 234 220 211 196 186 180 169 165 172 161 153 156 135 115 102 103 95 70 47 19 16 6 4 4 355 347 325 315 288 273 276 256 241 241 241
233 223 232 231 247 259 274 278 246 222 236 237 235 229 227 217 205 195 189 183 176 171 169 164 155 159 148 137 139 147 163 170 185 326 334 347 6 11 1 355 334 312 294 277 268 267 264 253 242
221 152 209 225 231 261 227 254 265 213 245 242 229 222 220 210 196 189 186 183 177 173 163 167 167 165 162 164 172 180 184 186 166 170 279 338 360 6 358 352 346 332 305 293 284 266 255 253 258
157 155 156 192 219 245 221 233 264 220 236 237 210 212 207 202 192 185 180 167 168 166 157 171 182 181 178 185 188 193 199 198 186 196 232 294 320 342 350 344 332 327 318 305 292 271 255 250 249
181 190 223 220 219 238 167 232 253 249 245 249 230 204 183 183 180 175 178 181 183 179 176 192 199 207 206 204 207 203 215 215 212 218 226 248 285 306 314 322 314 311 309 301 291 278 265 254 248
197 215 222 248 253 254 199 236 249 139 271 257 241 206 182 186 182 176 178 181 184 188 201 210 217 228 230 225 227 217 221 229 229 230 237 238 251 267 288 288 290 294 294 295 287 278 278 265 253
186 205 256 252 273 264 242 256 268 193 221 223 219 197 198 197 188 181 175 174 189 210 224 230 238 246 251 248 237 230 234 241 244 245 238 246 261 277 277 279 285 286 287 285 282 273 275 275 261
263 170 176 205 240 255 253 247 240 207 218 211 208 207 204 191 182 179 179 176 188 230 260 259 250 262 272 263 255 246 244 250 259 261 266 273 280 287 281 283 285 288 289 285 276 273 270 265 270
176 187 204 210 243 253 267 256 177 209 205 214 212 205 196 190 187 184 178 172 182 213 262 269 277 278 287 289 271 253 245 247 247 247 257 269 276 278 281 284 286 288 288 283 270 268 269 265 267
225 214 195 212 221 230 263 271 95 178 226 233 223 212 201 197 190 188 183 184 203 237 271 283 286 284 288 286 287 270 248 239 240 252 266 272 274 278 280 280 283 286 286 283 275 270 267 263 264